[[{"header":{"parameterUnit":"m.s-1","parameterCategory":1,"la1":30.2991,"la2":30.254,"lo1":-89.0895,"lo2":-89.0444,"dy":0.0017,"dx":0.0017,"nx":28,"ny":28,"refTime":"2025-06-01T03:00:00:Z","depth":0,"parameterNumber":2,"parameterNumberName":"U-component_of_WINDS"},"data":[0,0,0,0,0,0,0,0,0,0,0,0,0,0,0,0,0,0,0,0,0,0,0,0,0,0,0,0,0,0,0,0,0,0,0,0,0,0,0,0,0,0,0,0,0,0,0,0,0,0,0,0,0,0,0,0,0,0,1.3132,1.3133,0,1.322,1.3221,1.3222,1.3201,1.3199,1.3198,1.3196,1.3288,1.3292,1.3296,0,0,0,0,0,0,0,0,0,0,0,0,0,1.2947,1.2951,1.3132,1.3133,1.3134,1.322,1.3221,1.3223,1.3201,1.3199,1.3197,1.3195,1.3287,1.3291,1.3296,0,0,0,0,0,0,0,0,0,0,0,0,0,1.3031,1.2952,1.3132,1.3134,1.3135,1.322,1.3222,1.3223,1.3202,1.3199,1.3197,1.3194,1.3285,1.3291,1.3297,1.3386,0,0,1.3315,1.3318,0,0,0,0,0,0,0,0,1.3026,1.3037,1.3133,1.3134,1.3135,1.3197,1.319,1.3278,1.3202,1.3177,1.3196,1.3193,1.326,1.3268,1.329,1.339,1.3394,1.3316,1.332,1.3322,1.3324,0,0,0,0,0,0,0,1.302,1.3034,1.3167,1.3134,1.3136,1.3131,1.314,1.3206,1.3232,1.3179,1.3177,1.3188,1.326,1.3284,1.3292,1.3395,1.3316,1.3321,1.3325,1.3327,1.3573,1.3575,0,0,0,0,0,0,1.3013,1.3029,1.3164,1.317,1.3073,1.3137,1.3147,1.318,1.3231,1.3236,1.319,1.3187,1.3275,1.3285,1.3295,1.3402,1.3322,1.3328,1.3331,1.357,1.3573,1.3576,0,0,0,0,0,0,1.3009,1.3025,1.3161,1.3099,1.3116,1.3142,1.318,1.3183,1.3207,1.3239,1.3244,1.321,1.3274,1.3287,1.3363,1.3405,1.3331,1.3336,1.3566,1.3571,1.3575,1.3617,0,0,0,0,0,0,1.3004,1.3024,1.3057,1.31,1.3119,1.3227,1.3183,1.3187,1.3217,1.3214,1.3259,1.3264,1.3273,1.3354,1.3369,1.3412,1.3341,1.3563,1.3568,1.3573,1.3612,1.3622,1.3631,0,0,0,0,0,1.2997,1.3066,1.3059,1.3076,1.3162,1.3229,1.324,1.3248,1.3221,1.3255,1.3276,1.3263,1.3398,1.3362,1.3379,1.3424,1.356,1.3567,1.3573,1.3608,1.362,1.3631,0,0,0,0,0,0,1.3029,1.3072,1.3065,1.3149,1.3186,1.3225,1.3269,1.3261,1.3306,1.3301,1.3309,1.332,1.3398,1.3419,1.3378,1.3513,1.3475,1.3485,1.3496,1.3508,1.3518,1.3511,1.3346,0,0,0,0,0,1.3045,1.3096,1.3131,1.3203,1.3221,1.3242,1.3272,1.3275,1.3313,1.3328,1.3355,1.3393,1.3444,1.3477,1.3526,1.3615,1.3625,1.3655,1.3664,1.3672,1.3681,1.3729,1.3743,1.3598,1.3598,1.3597,0,0,1.308,1.311,1.3142,1.321,1.3238,1.3291,1.3255,1.3313,1.3352,1.3337,1.3411,1.3432,1.3475,1.3558,1.3596,1.3578,1.3723,1.368,1.3686,1.3691,1.3737,1.3751,1.3763,1.3602,1.3601,1.36,0,0,1.3171,1.3199,1.3261,1.3291,1.3334,1.3348,1.3363,1.3404,1.3417,1.3491,1.3481,1.3528,1.3616,1.3647,1.3675,1.3778,1.3768,1.3794,1.3843,1.3891,1.3902,1.3912,1.3949,1.3962,1.3802,1.3802,1.3802,0,1.3209,1.3288,1.3294,1.3353,1.3383,1.3372,1.3435,1.3464,1.3521,1.3543,1.3522,1.3632,1.366,1.375,1.3775,1.3798,1.3816,1.3788,1.39,1.391,1.392,1.3955,1.3969,1.3805,1.3805,1.3805,1.3804,0,1.3332,1.3387,1.3433,1.3488,1.3523,1.3584,1.36,1.3636,1.3636,1.3651,1.3727,1.3761,1.3816,1.3838,1.3839,1.3929,1.3916,1.3898,1.386,1.3936,1.3969,1.3983,1.3809,1.3808,1.3807,1.3807,0,0,1.3445,1.3503,1.3519,1.3544,1.3592,1.3635,1.3695,1.3749,1.3779,1.382,1.387,1.3945,1.3929,1.396,1.3964,1.4006,1.4085,1.3982,1.3983,1.4,1.4186,1.4199,1.4215,1.4079,1.4081,1.4084,1.4182,0,1.3539,1.3645,1.3653,1.3748,1.3799,1.379,1.3842,1.3878,1.3894,1.394,1.3959,1.4012,1.3986,1.4004,1.4045,1.4067,1.4122,1.406,1.4127,1.4129,1.4115,1.4232,1.4246,1.4337,1.4195,1.4198,1.4199,0,1.3663,1.3707,1.3807,1.3848,1.3869,1.3917,1.3966,1.4011,1.4051,1.406,1.4095,1.4093,1.4156,1.4117,1.4203,1.4161,1.4189,1.4203,1.4207,1.4213,1.4168,1.4241,1.4367,1.438,1.422,1.4218,1.4216,0,1.3734,1.3818,1.3889,1.3911,1.396,1.3993,1.4016,1.4053,1.4085,1.4129,1.415,1.4201,1.4229,1.4269,1.4282,1.4252,1.4368,1.4329,1.4377,1.4377,1.4402,1.44,1.4534,1.4421,1.4421,1.442,1.442,0,1.3839,1.3901,1.3922,1.3965,1.4034,1.4043,1.4112,1.4132,1.4166,1.4213,1.4209,1.4254,1.4268,1.4316,1.4327,1.4397,1.441,1.4419,1.4421,1.4419,1.4418,1.4437,1.4431,1.4424,1.4423,1.4423,1.4422,0,1.393,1.3946,1.4023,1.4063,1.4075,1.4124,1.4159,1.4201,1.4217,1.4277,1.4292,1.4318,1.4374,1.439,1.4458,1.4465,1.4547,1.4544,1.4533,1.4533,1.458,1.4575,1.4731,1.4752,1.4625,1.4627,1.4628,0,1.3995,1.4042,1.4087,1.4118,1.4142,1.4193,1.4225,1.4236,1.427,1.4319,1.4356,1.4411,1.4456,1.4546,1.4571,1.4623,1.462,1.4671,1.4628,1.4624,1.462,1.4617,1.4622,1.4679,1.468,1.4681,1.4682,0,1.4108,1.4114,1.4161,1.4211,1.4249,1.4289,1.4328,1.4354,1.4371,1.4409,1.4466,1.4501,1.457,1.4625,1.4677,1.4701,1.4695,1.4696,1.4709,1.4708,1.4699,1.4704,1.4555,1.4692,1.4691,1.469,1.469,1.4689,1.4188,1.423,1.4268,1.432,1.435,1.4386,1.4428,1.4449,1.4496,1.4553,1.4557,1.4618,1.4658,1.4728,1.4754,1.4803,1.4788,1.4808,1.4813,1.4818,1.4821,1.4692,1.4812,1.4812,1.4812,1.4812,1.4812,0,1.4301,1.4325,1.4373,1.4427,1.4468,1.4458,1.45,1.4536,1.459,1.4627,1.4671,1.4736,1.479,1.4819,1.4872,1.4906,1.4904,1.4919,1.4917,1.4922,1.4832,1.4814,1.492,1.492,1.492,1.492,1.492,1.492,1.4365,1.4434,1.4445,1.453,1.4554,1.4613,1.4638,1.4672,1.4701,1.4774,1.4819,1.4837,1.4871,1.4927,1.4976,1.4983,1.5003,1.502,1.5025,1.494,1.4929,1.4918,1.4902,1.5024,1.5024,1.5112,1.5113,1.5113]},{"header":{"parameterUnit":"m.s-1","parameterCategory":1,"la1":30.2991,"la2":30.254,"lo1":-89.0895,"lo2":-89.0444,"dy":0.0017,"dx":0.0017,"nx":28,"ny":28,"refTime":"2025-06-01T03:00:00:Z","depth":0,"parameterNumber":3,"parameterNumberName":"V-component_of_WINDS"},"data":[0,0,0,0,0,0,0,0,0,0,0,0,0,0,0,0,0,0,0,0,0,0,0,0,0,0,0,0,0,0,0,0,0,0,0,0,0,0,0,0,0,0,0,0,0,0,0,0,0,0,0,0,0,0,0,0,0,0,-1.6756,-1.6757,0,-1.6828,-1.6828,-1.6829,-1.6817,-1.6816,-1.6814,-1.6813,-1.6888,-1.6891,-1.6894,0,0,0,0,0,0,0,0,0,0,0,0,0,-1.6608,-1.6611,-1.6756,-1.6757,-1.6757,-1.6827,-1.6828,-1.6829,-1.6817,-1.6816,-1.6814,-1.6813,-1.6887,-1.689,-1.6894,0,0,0,0,0,0,0,0,0,0,0,0,0,-1.6676,-1.6612,-1.6756,-1.676,-1.6761,-1.6827,-1.6828,-1.683,-1.6817,-1.6815,-1.6814,-1.6812,-1.6885,-1.689,-1.6895,-1.6962,0,0,-1.6909,-1.6911,0,0,0,0,0,0,0,0,-1.6672,-1.6681,-1.6758,-1.676,-1.6761,-1.6811,-1.6804,-1.6874,-1.6818,-1.6796,-1.6813,-1.6811,-1.6864,-1.687,-1.6888,-1.6965,-1.6968,-1.6909,-1.6912,-1.6914,-1.6916,0,0,0,0,0,0,0,-1.6667,-1.6678,-1.6784,-1.6759,-1.6761,-1.6758,-1.6766,-1.6817,-1.684,-1.6798,-1.6797,-1.6806,-1.6864,-1.6883,-1.6889,-1.6969,-1.6909,-1.6914,-1.6916,-1.6918,-1.7105,-1.7107,0,0,0,0,0,0,-1.6661,-1.6674,-1.6782,-1.6786,-1.6711,-1.6762,-1.6771,-1.6797,-1.6839,-1.6844,-1.6807,-1.6805,-1.6876,-1.6884,-1.6892,-1.6973,-1.6914,-1.6919,-1.6921,-1.7103,-1.7105,-1.7107,0,0,0,0,0,0,-1.6658,-1.6671,-1.6779,-1.673,-1.6744,-1.6767,-1.6797,-1.6799,-1.6819,-1.6846,-1.685,-1.6822,-1.6875,-1.6885,-1.6944,-1.6975,-1.6921,-1.6925,-1.71,-1.7103,-1.7106,-1.7135,0,0,0,0,0,0,-1.6654,-1.667,-1.6695,-1.6731,-1.6746,-1.683,-1.6799,-1.6802,-1.6827,-1.6824,-1.6862,-1.6866,-1.6874,-1.6937,-1.6949,-1.6981,-1.6929,-1.7097,-1.7102,-1.7105,-1.7131,-1.7139,-1.7145,0,0,0,0,0,-1.6649,-1.6701,-1.6697,-1.671,-1.6779,-1.6832,-1.6841,-1.6849,-1.6829,-1.6855,-1.6873,-1.6865,-1.697,-1.6943,-1.6956,-1.699,-1.7095,-1.71,-1.7105,-1.7128,-1.7137,-1.7145,0,0,0,0,0,0,-1.6669,-1.6706,-1.6701,-1.6767,-1.6796,-1.6829,-1.6862,-1.6858,-1.6894,-1.689,-1.6899,-1.6908,-1.6967,-1.6985,-1.6954,-1.7057,-1.703,-1.7038,-1.7043,-1.7052,-1.7059,-1.7053,-1.6933,0,0,0,0,0,-1.6681,-1.6721,-1.6751,-1.6805,-1.682,-1.6839,-1.6862,-1.6866,-1.6897,-1.691,-1.6932,-1.6962,-1.7002,-1.7028,-1.7066,-1.7134,-1.7142,-1.7164,-1.717,-1.7176,-1.7182,-1.7219,-1.7229,-1.7123,-1.7123,-1.7123,0,0,-1.6706,-1.6731,-1.6756,-1.681,-1.6833,-1.6874,-1.685,-1.6894,-1.6925,-1.6916,-1.6973,-1.699,-1.7025,-1.7088,-1.7117,-1.7105,-1.7213,-1.7182,-1.7186,-1.719,-1.7225,-1.7235,-1.7243,-1.7126,-1.7126,-1.7125,0,0,-1.6773,-1.6797,-1.6844,-1.6868,-1.6903,-1.6915,-1.6927,-1.6961,-1.6972,-1.7029,-1.7023,-1.706,-1.7129,-1.7153,-1.7175,-1.7251,-1.7245,-1.7264,-1.7299,-1.7334,-1.7343,-1.735,-1.7377,-1.7386,-1.727,-1.727,-1.727,0,-1.6801,-1.6862,-1.687,-1.6915,-1.6938,-1.6933,-1.6981,-1.7004,-1.705,-1.7067,-1.7052,-1.7137,-1.7161,-1.7229,-1.7248,-1.7266,-1.7279,-1.7259,-1.7341,-1.7348,-1.7355,-1.7381,-1.7391,-1.7272,-1.7272,-1.7271,-1.7271,0,-1.6893,-1.6936,-1.697,-1.7015,-1.7043,-1.7089,-1.7104,-1.7131,-1.7132,-1.7146,-1.7204,-1.7231,-1.7275,-1.7291,-1.7293,-1.736,-1.7351,-1.7339,-1.7312,-1.7367,-1.7391,-1.7401,-1.7275,-1.7274,-1.7273,-1.7273,0,0,-1.6975,-1.7023,-1.7035,-1.7055,-1.7093,-1.7127,-1.7173,-1.7215,-1.7238,-1.727,-1.7309,-1.7367,-1.7355,-1.738,-1.7385,-1.7416,-1.7474,-1.7399,-1.74,-1.7412,-1.7548,-1.7557,-1.7568,-1.747,-1.7472,-1.7473,-1.7545,0,-1.7045,-1.7127,-1.7135,-1.7207,-1.7247,-1.7242,-1.7282,-1.731,-1.7324,-1.7359,-1.7375,-1.7415,-1.7397,-1.7412,-1.7443,-1.746,-1.7501,-1.7455,-1.7506,-1.7508,-1.7497,-1.7581,-1.7591,-1.7657,-1.7555,-1.7556,-1.7558,0,-1.7138,-1.7172,-1.7249,-1.7281,-1.7298,-1.7334,-1.7373,-1.7407,-1.7439,-1.7447,-1.7474,-1.7474,-1.7522,-1.7494,-1.7559,-1.7528,-1.7549,-1.7561,-1.7563,-1.7568,-1.7535,-1.7587,-1.7678,-1.7688,-1.7573,-1.7571,-1.757,0,-1.7189,-1.7255,-1.7309,-1.7326,-1.7365,-1.7391,-1.7408,-1.7438,-1.7463,-1.7497,-1.7513,-1.7553,-1.7574,-1.7605,-1.7616,-1.7594,-1.768,-1.7653,-1.7688,-1.7688,-1.7706,-1.7704,-1.7801,-1.7721,-1.7721,-1.772,-1.772,0,-1.7266,-1.7313,-1.7332,-1.7365,-1.7418,-1.7427,-1.7478,-1.7495,-1.7521,-1.7557,-1.7556,-1.759,-1.7603,-1.7639,-1.7648,-1.77,-1.771,-1.7718,-1.7719,-1.7718,-1.7716,-1.7731,-1.7726,-1.7723,-1.7723,-1.7722,-1.7722,0,-1.7332,-1.7347,-1.7405,-1.7438,-1.7447,-1.7484,-1.7512,-1.7544,-1.7557,-1.7603,-1.7614,-1.7635,-1.7678,-1.7692,-1.7744,-1.775,-1.781,-1.7809,-1.7799,-1.78,-1.7833,-1.783,-1.7942,-1.7957,-1.7868,-1.7869,-1.7869,0,-1.738,-1.7416,-1.7452,-1.7476,-1.7495,-1.7534,-1.7558,-1.7569,-1.7595,-1.7633,-1.7661,-1.7703,-1.7737,-1.7805,-1.7825,-1.7864,-1.7862,-1.7899,-1.7868,-1.7865,-1.7862,-1.7859,-1.7863,-1.7905,-1.7906,-1.7906,-1.7907,0,-1.7464,-1.7469,-1.7505,-1.7543,-1.7573,-1.7604,-1.7634,-1.7653,-1.7668,-1.7697,-1.7741,-1.7767,-1.7819,-1.7861,-1.7901,-1.7919,-1.7915,-1.7917,-1.7927,-1.7925,-1.7917,-1.7921,-1.7814,-1.7914,-1.7913,-1.7913,-1.7912,-1.7912,-1.7521,-1.7553,-1.7583,-1.7623,-1.7646,-1.7674,-1.7705,-1.7723,-1.7759,-1.7802,-1.7806,-1.7852,-1.7882,-1.7936,-1.7956,-1.7992,-1.7982,-1.7996,-1.8,-1.8003,-1.8005,-1.7912,-1.8,-1.7999,-1.7999,-1.7999,-1.7999,0,-1.7604,-1.7623,-1.766,-1.7701,-1.7733,-1.7726,-1.7759,-1.7786,-1.7826,-1.7855,-1.7888,-1.7937,-1.7978,-1.8001,-1.8041,-1.8065,-1.8065,-1.8075,-1.8073,-1.8077,-1.8013,-1.8,-1.8075,-1.8075,-1.8075,-1.8075,-1.8075,-1.8075,-1.7651,-1.7703,-1.7712,-1.7776,-1.7795,-1.784,-1.7859,-1.7884,-1.7907,-1.7962,-1.7995,-1.801,-1.8036,-1.8078,-1.8114,-1.812,-1.8134,-1.8146,-1.8151,-1.809,-1.8082,-1.8075,-1.8062,-1.8149,-1.815,-1.8212,-1.8213,-1.8213]}]]